EW5286 Weather Reports


Display with metric or nautical units.
time (UTC)temp
F
wind
direction
speed
MPH
gust
MPH
rain 1hr
in
rain 24hr
in
rain mn
in
humidity
%
barometer
mb
20260901223058 95 283 4.0 10.0 0.00 0.00 0.00 44 1013.2
20260901222927 95 242 5.0 10.0 0.00 0.00 0.00 44 1015.0
20260901222436 95 153 5.0 10.0 0.00 0.00 0.00 46 1015.0
20260901221947 96 215 3.0 8.0 0.00 0.00 0.00 45 1015.0
20260901221541 96 246 3.0 8.0 0.00 0.00 0.00 45 1013.2
20260901221425 96 194 4.0 7.0 0.00 0.00 0.00 45 1015.1
20260901220937 96 300 1.0 8.0 0.00 0.00 0.00 45 1015.1
20260901220428 96 210 2.0 9.0 0.00 0.00 0.00 45 1015.1
20260901220051 96 231 2.0 9.0 0.00 0.00 0.00 45 1013.3
20260901215929 96 187 4.0 10.0 0.00 0.00 0.00 44 1015.2
20260901215421 97 180 6.0 10.0 0.00 0.00 0.00 40 1015.2
20260901214932 97 235 1.0 8.0 0.00 0.00 0.00 44 1015.2
20260901214555 96 240 3.0 10.0 0.00 0.00 0.00 44 1013.3
20260901214432 96 223 6.0 10.0 0.00 0.00 0.00 44 1015.2
20260901213924 97 244 6.0 10.0 0.00 0.00 0.00 43 1015.3
20260901213456 97 240 3.0 9.0 0.00 0.00 0.00 42 1015.4
20260901213045 96 236 3.0 11.0 0.00 0.00 0.00 43 1013.5
20260901212943 97 240 4.0 11.0 0.00 0.00 0.00 44 1015.4
20260901212423 97 229 4.0 11.0 0.00 0.00 0.00 44 1015.3
20260901211934 97 234 5.0 11.0 0.00 0.00 0.00 43 1015.5
20260901211529 97 189 3.0 8.0 0.00 0.00 0.00 42 1013.6
20260901211423 97 229 4.0 8.0 0.00 0.00 0.00 43 1015.5
20260901210923 98 246 6.0 13.0 0.00 0.00 0.00 41 1015.6
20260901210435 98 151 5.0 13.0 0.00 0.00 0.00 42 1015.6
20260901210040 98 243 4.0 10.0 0.00 0.00 0.00 41 1013.7
20260901205947 99 195 2.0 10.0 0.00 0.00 0.00 41 1015.6
20260901205455 98 234 5.0 10.0 0.00 0.00 0.00 40 1015.6
20260901204936 98 250 3.0 11.0 0.00 0.00 0.00 42 1015.6
20260901204525 98 246 3.0 11.0 0.00 0.00 0.00 41 1013.8
20260901204425 98 241 4.0 11.0 0.00 0.00 0.00 41 1015.7
20260901203935 98 240 4.0 12.0 0.00 0.00 0.00 42 1015.7
20260901203447 98 198 5.0 12.0 0.00 0.00 0.00 41 1015.8
20260901203005 98 243 6.0 12.0 0.00 0.00 0.00 41 1013.9
20260901202928 99 219 7.0 12.0 0.00 0.00 0.00 40 1015.8
20260901202438 100 217 4.0 7.0 0.00 0.00 0.00 40 1015.9
20260901201950 100 205 4.0 7.0 0.00 0.00 0.00 39 1015.9
20260901201512 99 219 1.0 6.0 0.00 0.00 0.00 39 1014.0
20260901201431 99 234 3.0 9.0 0.00 0.00 0.00 40 1015.9
20260901200936 98 222 4.0 13.0 0.00 0.00 0.00 41 1015.9
20260901200436 98 221 4.0 13.0 0.00 0.00 0.00 41 1016.0
20260901200037 97 186 4.0 14.0 0.00 0.00 0.00 42 1014.1
20260901195926 98 250 3.0 14.0 0.00 0.00 0.00 42 1016.1
20260901195439 98 235 4.0 14.0 0.00 0.00 0.00 41 1016.1
20260901194941 98 240 3.0 10.0 0.00 0.00 0.00 41 1016.2
20260901194522 97 234 4.0 10.0 0.00 0.00 0.00 40 1014.3
20260901194429 97 176 5.0 10.0 0.00 0.00 0.00 40 1016.2
20260901193931 98 212 5.0 11.0 0.00 0.00 0.00 40 1016.2
20260901193442 99 233 7.0 11.0 0.00 0.00 0.00 41 1016.4
20260901193029 98 264 1.0 8.0 0.00 0.00 0.00 40 1014.4
20260901192932 98 219 1.0 8.0 0.00 0.00 0.00 40 1016.3
20260901192435 98 199 3.0 12.0 0.00 0.00 0.00 40 1016.4
20260901191946 97 159 6.0 12.0 0.00 0.00 0.00 42 1016.4
20260901191527 97 127 4.0 8.0 0.00 0.00 0.00 41 1014.5
20260901191435 98 172 5.0 8.0 0.00 0.00 0.00 41 1016.4
20260901190946 98 239 4.0 8.0 0.00 0.00 0.00 42 1016.5
20260901190448 97 196 3.0 8.0 0.00 0.00 0.00 42 1016.5
20260901190002 97 254 2.0 8.0 0.00 0.00 0.00 41 1014.6
20260901185937 97 237 3.0 8.0 0.00 0.00 0.00 40 1016.6
20260901185427 97 185 5.0 9.0 0.00 0.00 0.00 40 1016.7
20260901184930 97 181 5.0 9.0 0.00 0.00 0.00 42 1016.8
20260901184509 97 264 4.0 9.0 0.00 0.00 0.00 42 1014.8
20260901184436 97 176 5.0 9.0 0.00 0.00 0.00 42 1016.8
20260901183928 98 241 2.0 6.0 0.00 0.00 0.00 44 1016.8
20260901183428 98 253 3.0 6.0 0.00 0.00 0.00 46 1016.9
20260901183019 97 158 2.0 6.0 0.00 0.00 0.00 46 1015.0
20260901182941 98 198 2.0 6.0 0.00 0.00 0.00 47 1016.9
20260901182449 97 214 4.0 6.0 0.00 0.00 0.00 48 1017.0
20260901181928 96 237 3.0 6.0 0.00 0.00 0.00 47 1017.2
20260901181522 96 255 4.0 6.0 0.00 0.00 0.00 46 1015.3
20260901181441 96 240 5.0 6.0 0.00 0.00 0.00 46 1017.2
20260901180950 96 254 2.0 7.0 0.00 0.00 0.00 48 1017.3
20260901180433 95 210 3.0 12.0 0.00 0.00 0.00 49 1017.5
20260901180031 95 214 5.0 12.0 0.00 0.00 0.00 48 1015.6
20260901175923 95 236 6.0 12.0 0.00 0.00 0.00 48 1017.5
20260901175425 96 277 2.0 9.0 0.00 0.00 0.00 50 1017.5
20260901174936 95 172 5.0 9.0 0.00 0.00 0.00 49 1017.7
20260901174540 95 234 4.0 8.0 0.00 0.00 0.00 48 1015.8
20260901174446 96 194 3.0 7.0 0.00 0.00 0.00 49 1017.7
20260901173927 95 11 2.0 6.0 0.00 0.00 0.00 49 1017.8
20260901173438 96 161 3.0 8.0 0.00 0.00 0.00 48 1017.8
20260901173039 96 267 3.0 8.0 0.00 0.00 0.00 48 1016.0
20260901172949 96 182 4.0 8.0 0.00 0.00 0.00 48 1017.9
20260901172430 96 239 3.0 5.0 0.00 0.00 0.00 50 1017.9
20260901171942 95 240 2.0 4.0 0.00 0.00 0.00 52 1017.9
20260901171549 93 231 0.0 4.0 0.00 0.00 0.00 53 1016.1
20260901171422 93 213 2.0 4.0 0.00 0.00 0.00 53 1018.1
20260901170934 93 235 2.0 4.0 0.00 0.00 0.00 55 1018.1
20260901170426 94 229 3.0 4.0 0.00 0.00 0.00 52 1018.1
20260901170155 94 245 0.0 6.0 0.00 0.00 0.00 52 1016.4
20260901165923 94 356 2.0 7.0 0.00 0.00 0.00 52 1018.3
20260901165435 94 162 4.0 8.0 0.00 0.00 0.00 50 1018.4
20260901164946 95 256 3.0 8.0 0.00 0.00 0.00 51 1018.4
20260901164602 95 210 3.0 7.0 0.00 0.00 0.00 51 1016.6
20260901164428 95 283 2.0 4.0 0.00 0.00 0.00 53 1018.5
20260901163938 94 250 1.0 4.0 0.00 0.00 0.00 54 1018.5
20260901163450 94 286 1.0 5.0 0.00 0.00 0.00 55 1018.5
20260901163011 93 231 2.0 5.0 0.00 0.00 0.00 55 1016.7
20260901162929 93 188 3.0 5.0 0.00 0.00 0.00 56 1018.6
20260901162421 93 213 0.0 7.0 0.00 0.00 0.00 55 1018.7
20260901161933 93 212 1.0 7.0 0.00 0.00 0.00 54 1018.7
20260901161612 93 237 3.0 7.0 0.00 0.00 0.00 53 1016.8
20260901161434 94 243 3.0 7.0 0.00 0.00 0.00 54 1018.8
20260901160925 94 205 1.0 4.0 0.00 0.00 0.00 54 1018.7
20260901160433 94 225 2.0 5.0 0.00 0.00 0.00 56 1018.7
20260901160041 93 284 1.0 5.0 0.00 0.00 0.00 56 1016.9
20260901155944 93 241 2.0 5.0 0.00 0.00 0.00 56 1018.7
20260901155425 92 240 2.0 4.0 0.00 0.00 0.00 58 1018.7
20260901154935 92 229 3.0 4.0 0.00 0.00 0.00 57 1018.7
20260901154549 91 262 0.0 3.0 0.00 0.00 0.00 58 1016.8
20260901154446 92 255 1.0 3.0 0.00 0.00 0.00 59 1018.7
20260901154010 91 265 1.0 3.0 0.00 0.00 0.00 61 1018.7
20260901153431 90 209 0.0 2.0 0.00 0.00 0.00 61 1018.7
20260901153032 89 191 0.0 3.0 0.00 0.00 0.00 61 1016.9
20260901152944 90 205 0.0 3.0 0.00 0.00 0.00 62 1018.7
20260901152425 90 248 2.0 3.0 0.00 0.00 0.00 61 1018.7
20260901151936 90 252 1.0 3.0 0.00 0.00 0.00 61 1018.7
20260901151539 89 276 0.0 3.0 0.00 0.00 0.00 62 1016.9
20260901151448 89 255 2.0 3.0 0.00 0.00 0.00 62 1018.7
20260901150929 89 268 1.0 2.0 0.00 0.00 0.00 64 1018.8
20260901150440 88 186 1.0 2.0 0.00 0.00 0.00 65 1018.8
20260901150045 87 278 0.0 2.0 0.00 0.00 0.00 65 1017.0
20260901145950 88 278 0.0 2.0 0.00 0.00 0.00 65 1018.9
20260901145430 87 275 0.0 3.0 0.00 0.00 0.00 66 1018.9
20260901144942 87 273 1.0 3.0 0.00 0.00 0.00 68 1018.9
20260901144529 86 264 1.0 3.0 0.00 0.00 0.00 67 1017.0
20260901144432 87 259 1.0 3.0 0.00 0.00 0.00 66 1018.8
20260901143934 86 258 0.0 2.0 0.00 0.00 0.00 68 1018.8
20260901143425 86 264 0.0 2.0 0.00 0.00 0.00 68 1018.8
20260901143038 85 245 0.0 2.0 0.00 0.00 0.00 68 1016.9
20260901142934 86 240 1.0 2.0 0.00 0.00 0.00 67 1018.8
20260901142436 85 261 0.0 1.0 0.00 0.00 0.00 69 1018.8
20260901141928 85 262 0.0 1.0 0.00 0.00 0.00 69 1018.8
20260901141543 84 249 0.0 1.0 0.00 0.00 0.00 69 1017.0
20260901141424 84 249 0.0 1.0 0.00 0.00 0.00 70 1018.8
20260901140932 84 244 0.0 1.0 0.00 0.00 0.00 71 1018.8
20260901140444 84 243 0.0 1.0 0.00 0.00 0.00 71 1018.8
20260901140029 83 243 0.0 1.0 0.00 0.00 0.00 71 1017.0
20260901135932 83 243 0.0 1.0 0.00 0.00 0.00 71 1018.7
20260901135434 83 243 0.0 1.0 0.00 0.00 0.00 73 1018.7
20260901134926 82 256 0.0 1.0 0.00 0.00 0.00 76 1018.8
20260901134535 82 256 0.0 1.0 0.00 0.00 0.00 75 1017.0
20260901134436 82 256 0.0 1.0 0.00 0.00 0.00 77 1018.8
20260901134007 82 257 0.0 0.0 0.00 0.00 0.00 78 1018.7
20260901133429 81 257 0.0 0.0 0.00 0.00 0.00 77 1018.8
20260901133023 81 257 0.0 0.0 0.00 0.00 0.00 77 1016.9
20260901133001 81 257 0.0 0.0 0.00 0.00 0.00 76 1018.7
20260901131931 81 257 0.0 0.0 0.00 0.00 0.00 75 1018.7
20260901131517 80 257 0.0 0.0 0.00 0.00 0.00 75 1017.0
20260901131443 80 257 0.0 0.0 0.00 0.00 0.00 75 1018.8
20260901130932 80 257 0.0 0.0 0.00 0.00 0.00 75 1018.7
20260901130505 80 257 0.0 0.0 0.00 0.00 0.00 76 1018.7
20260901125948 80 257 0.0 0.0 0.00 0.00 0.00 76 1018.7
20260901125438 79 257 0.0 0.0 0.00 0.00 0.00 78 1018.6
20260901124929 79 257 0.0 0.0 0.00 0.00 0.00 78 1018.5
20260901124553 79 257 0.0 0.0 0.00 0.00 0.00 78 1016.7
20260901124431 79 257 0.0 0.0 0.00 0.00 0.00 78 1018.5
20260901123922 79 257 0.0 0.0 0.00 0.00 0.00 78 1018.5
20260901123434 79 257 0.0 0.0 0.00 0.00 0.00 78 1018.5
20260901123104 79 257 0.0 0.0 0.00 0.00 0.00 77 1016.6
20260901122945 79 257 0.0 0.0 0.00 0.00 0.00 77 1018.4
20260901122425 79 257 0.0 0.0 0.00 0.00 0.00 77 1018.3
20260901121935 79 257 0.0 0.0 0.00 0.00 0.00 77 1018.3
20260901121547 78 257 0.0 0.0 0.00 0.00 0.00 77 1016.5
20260901121446 79 257 0.0 0.0 0.00 0.00 0.00 77 1018.2
20260901120927 79 257 0.0 0.0 0.00 0.00 0.00 77 1018.1
20260901120440 79 257 0.0 0.0 0.00 0.00 0.00 77 1018.1
20260901120054 78 257 0.0 0.0 0.00 0.00 0.00 77 1016.2
20260901115921 79 257 0.0 0.0 0.00 0.00 0.00 77 1018.0
20260901115432 79 257 0.0 0.0 0.00 0.00 0.00 77 1017.9
20260901114944 79 257 0.0 0.0 0.00 0.00 0.00 77 1017.9
20260901114602 78 257 0.0 0.0 0.00 0.00 0.00 77 1016.2
20260901114426 79 257 0.0 0.0 0.00 0.00 0.00 77 1017.9
20260901113938 79 257 0.0 0.0 0.00 0.00 0.00 77 1017.9
20260901113449 79 257 0.0 0.0 0.00 0.00 0.00 77 1017.9
20260901113006 78 257 0.0 0.0 0.00 0.00 0.00 77 1016.1
20260901112928 79 257 0.0 0.0 0.00 0.00 0.00 77 1017.8
20260901112434 79 257 0.0 0.0 0.00 0.00 0.00 77 1017.8
20260901111926 79 257 0.0 0.0 0.00 0.00 0.00 77 1017.7
20260901111559 78 257 0.0 0.0 0.00 0.00 0.00 77 1015.9
20260901111427 79 257 0.0 0.0 0.00 0.00 0.00 77 1017.7
20260901110959 79 257 0.0 0.0 0.00 0.00 0.00 77 1017.7
20260901110428 79 257 0.0 0.0 0.00 0.00 0.00 77 1017.6
20260901110040 79 257 0.0 0.0 0.00 0.00 0.00 77 1015.9
20260901105940 79 257 0.0 1.0 0.00 0.00 0.00 77 1017.6
20260901105440 79 257 0.0 1.0 0.00 0.00 0.00 77 1017.6
20260901104931 79 257 0.0 1.0 0.00 0.00 0.00 78 1017.6
20260901104547 78 255 0.0 1.0 0.00 0.00 0.00 78 1015.8
20260901104444 78 255 0.0 1.0 0.00 0.00 0.00 78 1017.5
20260901103925 78 249 0.0 1.0 0.00 0.00 0.00 79 1017.4
20260901103436 78 250 1.0 1.0 0.00 0.00 0.00 79 1017.4
20260901103054 77 251 0.0 1.0 0.00 0.00 0.00 80 1015.6
20260901102948 78 246 1.0 1.0 0.00 0.00 0.00 80 1017.4
20260901102426 77 246 1.0 2.0 0.00 0.00 0.00 80 1017.3
20260901101937 78 246 1.0 2.0 0.00 0.00 0.00 80 1017.2
20260901101606 77 250 0.0 2.0 0.00 0.00 0.00 79 1015.4
20260901101507 78 250 0.0 2.0 0.00 0.00 0.00 79 1017.2
20260901100927 78 252 1.0 2.0 0.00 0.00 0.00 79 1017.2
20260901100455 78 251 1.0 3.0 0.00 0.00 0.00 79 1017.2
20260901100026 78 261 2.0 3.0 0.00 0.00 0.00 78 1015.3
20260901095943 78 244 2.0 3.0 0.00 0.00 0.00 78 1017.1
20260901095423 79 238 2.0 4.0 0.00 0.00 0.00 78 1017.1
20260901095005 79 250 3.0 4.0 0.00 0.00 0.00 78 1017.1
20260901094504 78 239 2.0 4.0 0.00 0.00 0.00 78 1015.3
20260901094424 79 240 3.0 4.0 0.00 0.00 0.00 78 1017.1
20260901093935 79 226 3.0 6.0 0.00 0.00 0.00 77 1017.1
20260901093446 79 214 4.0 8.0 0.00 0.00 0.00 77 1017.0
20260901093009 79 240 4.0 8.0 0.00 0.00 0.00 77 1015.2
20260901092926 79 238 4.0 8.0 0.00 0.00 0.00 77 1017.1
20260901092438 79 219 4.0 8.0 0.00 0.00 0.00 77 1017.1
20260901091948 79 238 4.0 4.0 0.00 0.00 0.00 78 1017.0
20260901091600 78 238 4.0 4.0 0.00 0.00 0.00 78 1015.3
20260901091429 79 240 4.0 4.0 0.00 0.00 0.00 78 1017.0
20260901090941 79 238 4.0 4.0 0.00 0.00 0.00 78 1017.0
20260901090452 79 240 3.0 4.0 0.00 0.00 0.00 78 1017.0
20260901090049 78 238 2.0 4.0 0.00 0.00 0.00 78 1015.2
20260901085942 79 238 3.0 4.0 0.00 0.00 0.00 78 1016.9
20260901085434 79 236 3.0 3.0 0.00 0.00 0.00 78 1017.0
20260901084925 79 235 2.0 3.0 0.00 0.00 0.00 79 1017.0
20260901084605 78 238 2.0 3.0 0.00 0.00 0.00 78 1015.2
20260901084456 79 238 2.0 3.0 0.00 0.00 0.00 78 1017.0
20260901084006 79 238 3.0 3.0 0.00 0.00 0.00 78 1017.0
20260901083427 79 238 3.0 3.0 0.00 0.00 0.00 78 1017.0
20260901083029 79 238 2.0 4.0 0.00 0.00 0.00 78 1015.2
20260901082959 79 238 2.0 4.0 0.00 0.00 0.00 78 1017.0
20260901082448 79 241 3.0 4.0 0.00 0.00 0.00 77 1016.9
20260901081937 79 238 3.0 4.0 0.00 0.00 0.00 78 1016.9
20260901081521 79 238 3.0 4.0 0.00 0.00 0.00 78 1015.1
20260901081427 79 238 3.0 4.0 0.00 0.00 0.00 77 1016.9
20260901080928 79 238 3.0 4.0 0.00 0.00 0.00 78 1016.9
20260901080441 79 238 3.0 4.0 0.00 0.00 0.00 78 1016.9
20260901080029 79 238 3.0 4.0 0.00 0.00 0.00 78 1015.0
20260901075931 79 244 3.0 4.0 0.00 0.00 0.00 78 1016.8
20260901075433 79 221 3.0 4.0 0.00 0.00 0.00 78 1016.8
20260901074924 79 243 3.0 4.0 0.00 0.00 0.00 77 1016.8
20260901074537 79 236 2.0 4.0 0.00 0.00 0.00 77 1015.0
20260901074431 80 236 3.0 4.0 0.00 0.00 0.00 77 1016.8
20260901073932 80 236 3.0 5.0 0.00 0.00 0.00 76 1016.8
20260901073423 80 238 3.0 5.0 0.00 0.00 0.00 76 1016.8
20260901073042 80 238 2.0 4.0 0.00 0.00 0.00 76 1015.1
20260901072924 80 238 2.0 4.0 0.00 0.00 0.00 76 1016.9
20260901072435 80 236 2.0 4.0 0.00 0.00 0.00 75 1016.8
20260901071926 81 232 2.0 4.0 0.00 0.00 0.00 75 1016.7
20260901071549 80 228 2.0 4.0 0.00 0.00 0.00 74 1014.9
20260901071428 81 219 2.0 4.0 0.00 0.00 0.00 74 1016.7
20260901070958 81 229 2.0 4.0 0.00 0.00 0.00 74 1016.6
20260901070428 81 222 3.0 4.0 0.00 0.00 0.00 74 1016.6
20260901070036 81 236 2.0 4.0 0.00 0.00 0.00 73 1014.9
20260901065939 81 200 2.0 4.0 0.00 0.00 0.00 73 1016.6
20260901065508 82 216 2.0 5.0 0.00 0.00 0.00 73 1016.6
20260901064930 82 235 3.0 6.0 0.00 0.00 0.00 73 1016.6
20260901064533 81 233 2.0 6.0 0.00 0.00 0.00 73 1014.9
20260901064502 82 239 2.0 6.0 0.00 0.00 0.00 73 1016.6
20260901063932 82 229 3.0 5.0 0.00 0.00 0.00 72 1016.7
20260901063445 82 212 2.0 5.0 0.00 0.00 0.00 72 1016.7
20260901063008 82 227 2.0 5.0 0.00 0.00 0.00 72 1014.9
20260901062924 82 229 3.0 5.0 0.00 0.00 0.00 72 1016.8
20260901062433 82 235 3.0 5.0 0.00 0.00 0.00 72 1016.7
20260901061935 82 229 3.0 5.0 0.00 0.00 0.00 72 1016.7
20260901061516 82 216 2.0 4.0 0.00 0.00 0.00 72 1015.0
20260901061425 82 232 3.0 4.0 0.00 0.00 0.00 72 1016.8
20260901060934 82 216 2.0 4.0 0.00 0.00 0.00 72 1016.7
20260901060436 82 220 3.0 4.0 0.00 0.00 0.00 72 1016.7
20260901060020 82 216 2.0 4.0 0.00 0.00 0.00 72 1015.0
20260901055924 82 231 2.0 5.0 0.00 0.00 0.00 72 1016.7
20260901055426 82 222 2.0 5.0 0.00 0.00 0.00 71 1016.7
20260901054938 82 183 3.0 5.0 0.00 0.00 0.00 71 1016.6
20260901054532 82 213 2.0 5.0 0.00 0.00 0.00 71 1014.9
20260901054428 83 197 3.0 4.0 0.00 0.00 0.00 71 1016.7
20260901053930 83 219 2.0 4.0 0.00 0.00 0.00 71 1016.6
20260901053501 83 198 3.0 4.0 0.00 0.00 0.00 71 1016.6
20260901053015 82 224 2.0 4.0 0.00 0.00 0.00 71 1014.8
20260901052931 83 210 2.0 4.0 0.00 0.00 0.00 71 1016.6
20260901052443 83 186 3.0 6.0 0.00 0.00 0.00 71 1016.6
20260901051925 83 226 3.0 6.0 0.00 0.00 0.00 70 1016.6
20260901051523 82 223 3.0 6.0 0.00 0.00 0.00 70 1014.8
20260901051435 83 221 3.0 6.0 0.00 0.00 0.00 70 1016.6
20260901050922 83 193 4.0 6.0 0.00 0.00 0.00 70 1016.7
20260901050425 83 226 4.0 6.0 0.00 0.00 0.00 71 1016.6
20260901050007 82 186 3.0 6.0 0.00 0.00 0.00 70 1014.8
20260901045931 83 203 3.0 6.0 0.00 0.00 0.00 70 1016.6
20260901045442 83 200 4.0 5.0 0.00 0.00 0.00 71 1016.6
20260901044933 83 240 4.0 6.0 0.00 0.00 0.00 71 1016.6
20260901044557 82 195 3.0 6.0 0.00 0.00 0.00 71 1014.8
20260901044434 83 237 4.0 6.0 0.00 0.00 0.00 71 1016.6
20260901043925 83 227 3.0 5.0 0.00 0.00 0.00 71 1016.6
20260901043436 83 252 3.0 6.0 0.00 0.00 0.00 71 1016.5
20260901043046 82 252 3.0 7.0 0.00 0.00 0.00 70 1014.8
20260901042947 83 231 3.0 7.0 0.00 0.00 0.00 70 1016.6
20260901042447 83 227 3.0 7.0 0.00 0.00 0.00 70 1016.5
20260901041938 83 213 3.0 7.0 0.00 0.00 0.00 70 1016.5
20260901041532 83 239 3.0 7.0 0.00 0.00 0.00 70 1014.9
20260901041428 83 238 4.0 7.0 0.00 0.00 0.00 70 1016.6
20260901040931 83 227 3.0 7.0 0.00 0.00 0.00 69 1016.6
20260901040423 84 218 4.0 9.0 0.00 0.00 0.00 69 1016.5
20260901040041 83 256 4.0 10.0 0.00 0.00 0.00 69 1014.8
20260901035923 84 239 4.0 10.0 0.00 0.00 0.00 68 1016.5
20260901035441 84 181 4.0 10.0 0.00 0.00 0.00 68 1016.5
20260901034922 84 168 4.0 9.0 0.00 0.00 0.00 68 1016.4
20260901034530 84 219 4.0 9.0 0.00 0.00 0.00 68 1014.7
20260901034428 84 248 4.0 9.0 0.00 0.00 0.00 68 1016.5
20260901033931 84 217 5.0 9.0 0.00 0.00 0.00 68 1016.5
20260901033443 84 244 4.0 9.0 0.00 0.00 0.00 68 1016.5
20260901033011 84 175 4.0 8.0 0.00 0.00 0.00 68 1014.6
20260901032932 84 207 5.0 8.0 0.00 0.00 0.00 68 1016.4
20260901032443 84 199 4.0 8.0 0.00 0.00 0.00 68 1016.4
20260901031935 84 181 5.0 8.0 0.00 0.00 0.00 68 1016.5
20260901031612 84 237 4.0 8.0 0.00 0.00 0.00 68 1014.7
20260901031436 84 203 4.0 8.0 0.00 0.00 0.00 68 1016.5
20260901030927 84 248 5.0 8.0 0.00 0.00 0.00 67 1016.4
20260901030430 84 211 4.0 8.0 0.00 0.00 0.00 67 1016.5
20260901030016 84 252 4.0 7.0 0.00 0.00 0.00 67 1014.6
20260901025941 85 229 4.0 7.0 0.00 0.00 0.00 67 1016.4
20260901025430 85 243 3.0 7.0 0.00 0.00 0.00 66 1016.4
20260901024933 85 194 3.0 7.0 0.00 0.00 0.00 65 1016.3
20260901024521 85 220 3.0 7.0 0.00 0.00 0.00 65 1014.5
20260901024421 85 153 3.0 7.0 0.00 0.00 0.00 65 1016.3
20260901023933 85 186 3.0 7.0 0.00 0.00 0.00 64 1016.3
20260901023437 86 181 3.0 9.0 0.00 0.00 0.00 64 1016.2
20260901023021 85 241 3.0 9.0 0.00 0.00 0.00 64 1014.5
20260901022926 86 158 3.0 9.0 0.00 0.00 0.00 64 1016.2
20260901022453 86 264 3.0 6.0 0.00 0.00 0.00 63 1016.2
20260901021922 86 266 2.0 8.0 0.00 0.00 0.00 63 1016.2
20260901021548 86 263 2.0 8.0 0.00 0.00 0.00 62 1014.4
20260901021423 86 179 3.0 8.0 0.00 0.00 0.00 62 1016.1
20260901020934 86 225 3.0 8.0 0.00 0.00 0.00 62 1016.1
20260901020428 87 266 3.0 7.0 0.00 0.00 0.00 62 1016.1
20260901020055 86 192 3.0 7.0 0.00 0.00 0.00 62 1014.2
20260901015928 87 222 2.0 7.0 0.00 0.00 0.00 62 1016.0
20260901015439 87 192 2.0 7.0 0.00 0.00 0.00 61 1015.9
20260901014950 87 247 2.0 6.0 0.00 0.00 0.00 61 1015.9
20260901014602 86 224 2.0 6.0 0.00 0.00 0.00 61 1014.1
20260901014431 87 195 2.0 6.0 0.00 0.00 0.00 61 1015.8
20260901013922 87 212 2.0 7.0 0.00 0.00 0.00 61 1015.8
20260901013424 87 244 2.0 7.0 0.00 0.00 0.00 60 1015.7
20260901013111 87 234 2.0 6.0 0.00 0.00 0.00 60 1013.9
20260901012945 87 167 3.0 6.0 0.00 0.00 0.00 60 1015.7
20260901012424 87 203 2.0 5.0 0.00 0.00 0.00 60 1015.7
20260901011955 87 196 2.0 6.0 0.00 0.00 0.00 60 1015.6
20260901011535 87 213 3.0 6.0 0.00 0.00 0.00 60 1013.8
20260901011446 87 216 4.0 6.0 0.00 0.00 0.00 60 1015.6
20260901010928 87 293 3.0 8.0 0.00 0.00 0.00 60 1015.6
20260901010435 88 204 2.0 5.0 0.00 0.00 0.00 60 1015.6
20260901010044 87 214 1.0 7.0 0.00 0.00 0.00 60 1013.7
20260901005947 88 195 1.0 7.0 0.00 0.00 0.00 60 1015.6
20260901005428 88 255 2.0 7.0 0.00 0.00 0.00 60 1015.5
20260901004940 88 223 2.0 5.0 0.00 0.00 0.00 60 1015.5
20260901004551 88 165 1.0 5.0 0.00 0.00 0.00 60 1013.7
20260901004421 88 272 2.0 7.0 0.00 0.00 0.00 60 1015.6
20260901003933 89 266 2.0 7.0 0.00 0.00 0.00 59 1015.5
20260901003444 89 151 1.0 6.0 0.00 0.00 0.00 59 1015.6
20260901003037 89 260 0.0 6.0 0.00 0.00 0.00 58 1013.6
20260901002929 89 252 2.0 6.0 0.00 0.00 0.00 58 1015.5
20260901002432 90 200 2.0 6.0 0.00 0.00 0.00 57 1015.5
20260901001923 90 200 2.0 5.0 0.00 0.00 0.00 57 1015.5
20260901001542 90 215 1.0 6.0 0.00 0.00 0.00 56 1013.6
20260901001453 90 208 1.0 6.0 0.00 0.00 0.00 56 1015.4
20260901000922 90 193 2.0 6.0 0.00 0.00 0.00 55 1015.4
20260901000454 91 188 1.0 6.0 0.00 0.00 0.00 55 1015.4
20260901000050 90 208 1.0 6.0 0.00 0.00 0.00 54 1013.5
20260831235933 91 243 1.0 6.0 0.00 0.00 0.00 54 1015.4
20260831235421 91 225 3.0 6.0 0.00 0.00 0.00 53 1015.3
20260831234926 91 239 2.0 8.0 0.00 0.00 0.00 53 1015.4
20260831234553 91 267 3.0 8.0 0.00 0.00 0.00 52 1013.6
20260831234428 92 182 3.0 8.0 0.00 0.00 0.00 52 1015.4
20260831233940 92 258 2.0 11.0 0.00 0.00 0.00 52 1015.4
20260831233449 92 250 2.0 11.0 0.00 0.00 0.00 51 1015.3
20260831233059 92 198 4.0 10.0 0.00 0.00 0.00 51 1013.5
20260831232930 92 207 3.0 7.0 0.00 0.00 0.00 51 1015.4
20260831232422 92 137 4.0 10.0 0.00 0.00 0.00 50 1015.4
20260831231955 93 212 5.0 10.0 0.00 0.00 0.00 50 1015.4
20260831231554 92 221 1.0 8.0 0.00 0.00 0.00 50 1013.5
20260831231446 93 245 1.0 8.0 0.00 0.00 0.00 50 1015.3
20260831230926 93 248 2.0 8.0 0.00 0.00 0.00 50 1015.3
20260831230436 93 235 3.0 6.0 0.00 0.00 0.00 49 1015.4
20260831230048 93 155 2.0 7.0 0.00 0.00 0.00 48 1013.6
20260831225947 93 165 2.0 7.0 0.00 0.00 0.00 49 1015.4
20260831225435 93 255 3.0 7.0 0.00 0.00 0.00 49 1015.4
20260831225007 94 237 3.0 9.0 0.00 0.00 0.00 49 1015.4
20260831224614 93 229 2.0 10.0 0.00 0.00 0.00 48 1013.6
20260831224442 94 195 4.0 10.0 0.00 0.00 0.00 47 1015.3
20260831223932 94 212 5.0 10.0 0.00 0.00 0.00 47 1015.4